Weather History for KITR - November, 2012

Change the Weather History Date:

Monday, November 12, 2012

  Actual Average Record
Temperature  
Mean Temperature 29 °F 40 °F  
Max Temperature 48 °F 54 °F 83 °F (1943)
Min Temperature 9 °F 26 °F -4 °F (2014)
Degree Days  
Heating Degree Days 36    
Moisture  
Dew Point 7 °F    
Average Humidity 46    
Maximum Humidity 88    
Minimum Humidity 13    
Precipitation  
Precipitation 0.00 in 0.03 in 0.48 in (1961)
Month to date precipitation T 0.36  
Year to date precipitation 10.56 16.80  
Sea Level Pressure  
Sea Level Pressure 30.37 in    
Wind  
Wind Speed 8 mph (SW)    
Max Wind Speed 15 mph    
Max Gust Speed 17 mph    
Visibility 10 miles    
Events      
T = Trace of Precipitation, MM = Missing Value Source: NWS Daily Summary

Daily Weather History Graph

Daily Weather History Graph

Search for Another Location

Airport or City:

Trip Planner

Search our weather history database for the weather conditions in past years. The results will help you decide how hot, cold, wet, or windy it might be!

Date:

Astronomy

Nov. 12, 2012 Rise Set
Actual Time 6:29 AM MST 4:36 PM MST
Civil Twilight 6:01 AM MST 5:04 PM MST
Nautical Twilight 5:29 AM MST 5:37 PM MST
Astronomical Twilight 4:57 AM MST 6:08 PM MST
Moon 4:58 AM MST (11/12) 3:43 PM MST (11/12)
Length of Visible Light 11h 03m
Length of Day
10h 06m
Waning Crescent, 2% of the Moon is Illuminated
Nov 12
Waning Crescent
Nov 13
New
Nov 20
First Quarter
Nov 28
Full
Dec 6
Last Quarter

Hourly Weather History & Observations

Time (MST) Temp. Windchill Dew Point Humidity Pressure Visibility Wind Dir Wind Speed Gust Speed Precip Events Conditions
12:53 AM 15.1 °F 3.3 °F 12.0 °F 88% 30.34 in 10.0 mi West 9.2 mph - N/A   Clear
1:53 AM 12.9 °F 1.6 °F 8.1 °F 81% 30.35 in 10.0 mi West 8.1 mph - N/A   Clear
2:53 AM 12.9 °F 1.6 °F 6.1 °F 74% 30.36 in 10.0 mi West 8.1 mph - N/A   Clear
3:53 AM 12.0 °F 2.7 °F 6.1 °F 77% 30.37 in 10.0 mi West 5.8 mph - N/A   Clear
4:53 AM 12.0 °F 1.5 °F 5.0 °F 73% 30.40 in 10.0 mi West 6.9 mph - N/A   Clear
5:53 AM 9.0 °F -2.2 °F 3.0 °F 77% 30.43 in 10.0 mi SW 6.9 mph - N/A   Clear
6:53 AM 14.0 °F 2.0 °F 10.9 °F 88% 30.44 in 10.0 mi WSW 9.2 mph - N/A   Clear
7:53 AM 26.1 °F 21.9 °F 21.0 °F 81% 30.43 in 10.0 mi WSW 3.5 mph - N/A   Clear
8:53 AM 33.1 °F 26.1 °F 23.0 °F 66% 30.43 in 10.0 mi SW 8.1 mph - N/A   Clear
9:53 AM 39.0 °F 32.3 °F 15.1 °F 38% 30.42 in 10.0 mi WSW 10.4 mph - N/A   Clear
10:53 AM 43.0 °F 38.2 °F 8.1 °F 24% 30.40 in 10.0 mi SW 8.1 mph 17.3 mph N/A   Clear
11:53 AM 45.0 °F - 3.9 °F 18% 30.37 in 10.0 mi Calm Calm - N/A   Clear
12:53 PM 48.0 °F - -0.9 °F 13% 30.35 in 10.0 mi West 4.6 mph - N/A   Clear
1:53 PM 48.0 °F - 1.9 °F 15% 30.34 in 10.0 mi SW 9.2 mph - N/A   Clear
2:53 PM 48.0 °F - 1.0 °F 14% 30.35 in 10.0 mi South 6.9 mph - N/A   Clear
3:53 PM 46.0 °F 41.9 °F 1.9 °F 16% 30.36 in 10.0 mi SSW 8.1 mph - N/A   Clear
4:53 PM 36.0 °F 29.0 °F 1.9 °F 24% 30.39 in 10.0 mi South 9.2 mph - N/A   Clear
5:53 PM 30.9 °F - 3.0 °F 31% 30.42 in 10.0 mi North - - N/A   Clear
6:53 PM 30.9 °F 21.2 °F 3.0 °F 31% 30.41 in 10.0 mi South 12.7 mph - N/A   Clear
7:53 PM 30.0 °F 19.5 °F 6.1 °F 36% 30.38 in 10.0 mi SSW 13.8 mph - N/A   Clear
8:53 PM 30.9 °F 20.2 °F 5.0 °F 33% 30.35 in 10.0 mi SSW 15.0 mph - N/A   Clear
9:53 PM 28.0 °F 17.0 °F 6.1 °F 39% 30.33 in 10.0 mi South 13.8 mph - N/A   Clear
10:53 PM 28.9 °F 18.2 °F 5.0 °F 36% 30.30 in 10.0 mi South 13.8 mph - N/A   Clear
11:53 PM 30.9 °F 21.2 °F 3.0 °F 31% 30.28 in 10.0 mi SSW 12.7 mph - N/A   Clear